Showing default

COSMOS 2093, 20738

Orbit data source: Space-Track

COSMOS 2093, 20738 is a payload satellite owned by UNKS (CIS) in LEO that was launched on Wed, 08 Aug 1990 UTC via a TSIKLON-3 launch vehicle from the Plesetsk Missile And Space Complex (PKMTR). Payloads include a variety of satellites, spacecraft, and rockets equipped with specific instruments for various scientific and technological missions. These include communications satellites like Starlink; space stations such as the ISS; scientific satellites like the Hubble; Earth observation satellites from companies like Planet Labs, Umbra, and HawkEye 360; GPS; miniature CubeSats for education and research; and military/defense satellites.

Loading next visibility...
COSMOS 2093 details
Identifier
20738, 1990-070D
Orbit
LEO
Last TLE update1 day ago
Origin
Flag of CISUNKS (CIS)
ManufacturerNPO PM
MissionDefense Communications
Bus & MotorSTRELA-3, Unknown motor
Mass225 kg wet, 225 kg dry
Launch date (UTC)
1990-08-08 (35 years ago)
Launch vehicle
TSIKLON-3
Launch site
Plesetsk Missile And Space Complex (PKMTR)
Object type
Payload
Rocket body
Debris
Shape & HBRCyl, 1.6 m
Radar Cross Section1.257 m², Large (>1 m²)

Expand to show TLE details & history

TLE from 1 day ago
0 COSMOS 2093
1 20738U 90070D   25037.61048312  .00000032  00000-0  11605-3 0  9999
2 20738  82.5707 258.2991 0009078 149.3157 264.5308 12.64077234591954
Epoch: 2025-02-06T14:39Z
Definitive object data (Epoch: 2025-02-06T14:39:05.741Z)
Latitude53.18426°
Longitude-88.47701°
Altitude1,415.463 km
Speed7.157 km/s
True Right ascension17h 53m 07s
True Declination53° 01' 59"
Sunlit
Object was in daylight at TLE epoch
Visualization TLE readout
Latitude-2.31839°
Longitude-99.41171°
Altitude1,415.294 km
Speed7.15 km/s
Apparent Right ascension17h 00m 43s
Apparent Declination-56° 35' 37"
Sunlit
Object is in daylight
Visualization observer readout
Local Sidereal Time17:14:29
Azimuth181.908° SSW
Elevation-6.554°
Doppler factor1
Orbital elements
Apogee altitude1,410.543 km
Perigee altitude1,396.415 km
Semi-major axis7,781.616 km
Eccentricity0.0009078
Inclination82.5707°
RAAN258.2991°
Arg. of periapsis149.3157°
True anomaly264.42726°
Mean anomaly264.5308°
Eccentric anomaly264.47903°
Mean motion3.16183 °/min
BSTAR0.00011605
Orbital period113.86 mins
Loading maneuver chart data...
Loading historical data...
Loading historical data...
Loading historical data...
Loading historical data...
Loading historical data...
Loading historical data...
Loading historical data...

COSMOS 2093 Visibility forecast

Observer location: undefined°, undefined

Span
Click to sort rows by Start time (UTC) header in descending order
Start Az.
Max El. time (UTC)
Max El. Az.
Max El.
End time (UTC)
End Az.
15 mins2025-02-07 15:09:01.540Z180.663° SSW2025-02-07 15:16:01.540Z138.525° SSE44.48°2025-02-07 15:24:01.540Z9.695° NNE
9 mins2025-02-07 17:08:01.540Z259.721° W2025-02-07 17:12:01.540Z292.628° NW18.83°2025-02-07 17:17:01.540Z333.592° NNW
12 mins2025-02-08 01:11:01.540Z16.432° NNE2025-02-08 01:17:01.540Z73.979° E28.216°2025-02-08 01:23:01.540Z127.966° SE
13 mins2025-02-08 03:06:01.540Z337.22° NNW2025-02-08 03:12:01.540Z267.613° W37.979°2025-02-08 03:19:01.540Z199.56° SSW
12 mins2025-02-08 13:59:01.540Z133.8° SE2025-02-08 14:04:01.540Z86.253° E27.734°2025-02-08 14:11:01.540Z27.046° NE
|